GEFSMA_850_meantemp_072.txt.gz
Temperature
11 11 10 10 10 9 9 9 9 9 9 8 8 8 8 8 8 8 8 7 7 7 7 7 6 6 6 5 5 5 4 4 3 3 3 3 2 2 3 3 3 2 2
11 11 10 10 10 9 9 9 8 8 8 8 8 8 8 8 8 8 7 7 7 7 7 7 6 6 6 5 4 4 4 3 3 3 2 2 2 2 2 2 2 2 2
11 10 10 10 10 9 9 8 8 8 8 8 8 8 8 8 8 7 7 7 7 7 7 6 6 6 6 5 4 4 3 3 3 2 2 1 1 1 1 1 1 1 1
10 10 10 10 9 9 8 8 8 8 8 8 8 8 8 7 7 7 7 7 7 7 6 6 6 6 5 5 4 3 3 2 2 2 1 1 1 1 1 1 1 1 1
10 10 10 10 9 9 8 8 8 8 8 8 8 7 7 7 7 7 7 7 7 7 6 6 6 5 5 5 4 3 3 2 1 1 1 1 0 0 0 0 0 0 0
9 9 9 9 9 8 8 8 8 8 7 7 7 7 7 7 7 7 7 7 7 7 6 6 6 5 5 5 4 4 3 2 1 1 0 0 0 -0 -0 -0 -0 -0 -0
9 9 8 8 8 8 8 8 7 7 7 6 6 6 6 7 7 7 7 7 7 7 7 6 6 5 5 4 4 4 3 2 1 1 0 -0 -0 -0 -0 -0 -0 -0 -0
8 8 8 7 7 7 7 7 7 6 6 6 5 5 4 6 7 8 8 8 8 7 7 6 6 6 5 4 4 3 3 3 2 1 0 -0 -0 -1 -1 -1 -1 -1 -0
8 8 7 7 7 6 6 6 6 6 6 5 5 4 4 4 6 7 7 7 7 7 7 6 6 5 5 4 4 3 3 2 2 1 0 -0 -1 -1 -1 -1 -1 -1 -1
8 8 7 7 6 6 6 6 5 5 5 4 4 4 4 4 3 4 5 5 5 5 5 5 5 5 5 4 4 3 2 2 2 1 0 -0 -1 -1 -1 -1 -1 -1 -1
8 8 7 7 6 6 6 5 5 5 4 4 4 4 3 3 2 1 2 3 3 4 4 4 4 4 4 3 3 3 2 2 1 1 0 -1 -1 -1 -1 -1 -1 -1 -2
8 7 7 6 6 6 6 5 5 5 4 4 3 3 2 2 1 1 -0 1 1 2 2 2 2 3 3 3 2 2 2 1 1 0 -0 -1 -1 -2 -2 -2 -2 -2 -2
8 7 7 6 6 6 5 5 5 4 4 4 3 3 2 2 2 1 -0 -0 -0 0 0 0 1 1 1 1 2 1 1 0 0 -0 -1 -1 -2 -2 -2 -3 -3 -3 -3
8 7 7 6 6 5 5 5 4 4 4 3 3 3 2 2 1 0 -0 -1 -1 -1 -1 -1 -1 -0 0 0 1 0 -0 -0 -0 -1 -2 -2 -3 -3 -3 -3 -3 -3 -3
7 7 7 6 6 5 5 4 4 4 3 3 3 3 2 2 1 0 -1 -2 -2 -3 -3 -2 -2 -1 -1 -1 -1 -1 -1 -1 -1 -2 -2 -3 -3 -3 -4 -4 -4 -4 -4
7 6 6 6 6 5 5 4 4 4 3 3 3 2 2 2 1 0 -1 -2 -3 -3 -4 -3 -3 -3 -2 -2 -2 -2 -2 -2 -2 -2 -3 -3 -4 -4 -4 -4 -4 -4 -4
6 6 6 5 5 5 5 4 4 3 3 3 2 2 2 1 1 -0 -1 -2 -3 -4 -4 -4 -4 -4 -4 -4 -3 -3 -3 -3 -3 -3 -3 -3 -4 -4 -4 -5 -5 -5 -5
5 5 5 5 5 5 4 4 3 3 3 2 2 2 1 1 1 -0 -1 -2 -3 -4 -4 -5 -5 -5 -5 -5 -4 -4 -4 -4 -3 -3 -3 -4 -4 -4 -5 -5 -5 -5 -5
5 4 4 4 4 4 4 4 3 3 2 2 2 1 1 1 0 -0 -1 -2 -3 -4 -4 -5 -5 -5 -6 -6 -5 -5 -5 -4 -4 -4 -4 -4 -4 -5 -5 -5 -5 -5 -5
4 4 3 3 3 3 3 3 3 2 2 1 1 1 1 0 -0 -0 -1 -2 -3 -4 -5 -5 -6 -6 -6 -6 -6 -6 -6 -5 -4 -4 -4 -4 -5 -5 -5 -5 -6 -6 -6
3 3 3 2 2 2 2 2 2 2 1 1 1 1 0 -0 -1 -2 -2 -3 -3 -4 -5 -6 -6 -7 -7 -7 -7 -6 -6 -5 -5 -5 -5 -5 -5 -5 -5 -5 -5 -6 -6
2 2 2 1 1 1 1 1 0 0 0 0 0 0 -0 -1 -2 -3 -3 -4 -4 -5 -5 -6 -7 -7 -7 -7 -7 -7 -7 -7 -6 -5 -5 -5 -5 -6 -5 -5 -5 -6 -6
1 1 1 0 0 0 0 0 -0 -1 -1 -1 -1 -1 -1 -1 -2 -2 -3 -4 -4 -4 -5 -6 -6 -7 -7 -6 -7 -7 -7 -7 -6 -6 -6 -7 -6 -7 -6 -6 -6 -7 -7
-0 -0 -0 -0 -1 -0 -0 -1 -1 -1 -1 -1 -1 -2 -2 -2 -3 -3 -3 -4 -4 -4 -5 -5 -6 -6 -6 -6 -6 -7 -7 -7 -7 -7 -7 -8 -7 -7 -6 -6 -7 -7 -8
-1 -1 -1 -1 -1 -1 -1 -1 -2 -2 -2 -2 -2 -2 -3 -3 -3 -4 -5 -5 -5 -5 -5 -6 -6 -6 -6 -6 -6 -7 -7 -7 -8 -7 -7 -8 -7 -7 -7 -7 -7 -7 -8
-2 -2 -2 -2 -2 -2 -2 -2 -2 -3 -3 -2 -2 -3 -3 -3 -4 -4 -5 -5 -6 -6 -6 -6 -6 -6 -6 -6 -6 -6 -6 -7 -8 -8 -7 -7 -8 -8 -8 -8 -8 -8 -8

GEFSMA_850_meantemp_078.txt.gz
Temperature
10 10 10 9 9 9 9 9 8 8 8 8 8 8 8 8 8 8 8 8 8 8 7 7 6 6 5 6 6 6 6 6 6 5 5 5 5 4 4 4 4 3 3
10 10 9 9 9 9 9 8 8 8 8 8 8 8 8 8 8 8 8 8 7 7 7 7 6 5 5 5 5 5 5 5 5 5 4 4 4 4 4 4 3 3 3
9 9 9 9 9 8 8 8 8 8 8 8 8 8 8 8 8 8 7 7 7 7 7 7 7 6 5 5 4 4 4 4 4 4 4 4 4 3 3 3 3 3 3
9 9 9 9 8 8 8 7 7 7 7 7 7 7 7 7 7 7 7 7 7 7 7 7 7 7 6 5 5 4 4 4 4 4 4 3 3 3 3 3 3 3 3
9 9 8 8 8 8 7 7 7 7 7 7 7 7 7 7 7 7 7 7 7 7 7 7 7 7 7 6 6 5 4 4 4 3 3 3 3 3 2 2 2 2 2
9 9 8 8 8 7 7 7 7 7 7 6 6 6 6 7 7 7 7 7 7 8 8 8 7 7 7 7 6 6 5 4 3 3 3 3 2 2 2 2 2 2 2
9 9 8 8 8 7 7 7 6 6 6 6 5 5 6 6 6 7 7 8 8 8 8 8 8 7 7 7 6 6 5 5 4 3 3 3 2 2 2 2 2 2 2
9 9 8 8 8 7 7 6 6 6 6 5 5 5 4 5 6 7 7 8 8 8 8 8 8 8 7 7 6 6 6 5 4 3 3 2 2 2 2 2 1 1 1
9 8 8 8 7 7 7 6 6 6 5 5 5 4 3 4 5 5 5 5 5 6 6 6 6 7 7 7 7 6 6 5 5 4 3 2 2 2 2 1 1 1 1
8 8 8 7 7 7 6 6 6 5 5 4 4 4 4 4 3 3 4 4 4 4 4 5 5 5 5 6 6 6 6 5 5 4 3 2 2 2 1 1 1 1 1
8 8 8 7 7 6 6 6 5 5 5 4 4 4 3 3 2 1 1 2 3 4 4 4 4 4 4 4 4 5 5 5 5 4 3 3 2 1 1 1 1 1 1
8 8 7 7 7 6 6 6 5 5 4 4 3 3 3 2 2 2 0 1 2 3 3 3 3 3 3 3 3 3 4 4 4 4 3 2 2 1 1 1 1 1 1
8 8 7 7 6 6 6 5 5 5 4 4 3 3 3 2 2 2 1 0 0 1 2 2 2 3 3 3 3 2 2 3 3 3 2 2 1 1 1 0 0 0 0
7 7 7 6 6 6 6 5 5 4 4 4 3 3 3 2 2 1 1 1 -1 -1 -0 1 1 1 2 2 2 2 1 1 1 1 1 1 0 0 0 -0 -0 -0 -1
6 6 6 6 6 6 5 5 4 4 4 3 3 3 2 2 2 1 1 0 -1 -2 -1 -0 -0 1 1 1 1 1 1 1 0 0 -0 -0 -1 -1 -1 -1 -1 -1 -1
6 6 6 5 5 5 5 4 4 4 3 3 3 2 2 2 1 1 0 -0 -1 -2 -3 -1 -1 -0 -0 -0 -0 -0 -0 -0 -1 -1 -1 -2 -2 -2 -2 -2 -2 -2 -2
5 5 5 5 5 4 4 4 3 3 3 3 2 2 2 1 1 0 -0 -1 -1 -2 -3 -2 -2 -2 -2 -2 -1 -1 -1 -1 -1 -2 -2 -2 -2 -2 -2 -2 -2 -2 -2
5 4 4 4 4 4 3 3 3 3 2 2 2 1 1 1 0 -0 -1 -1 -2 -2 -3 -3 -2 -3 -2 -2 -2 -2 -2 -3 -3 -2 -3 -3 -3 -3 -3 -3 -3 -3 -3
4 4 3 3 3 3 2 2 2 1 1 1 1 0 0 -0 -0 -1 -1 -2 -2 -2 -3 -3 -3 -3 -4 -3 -3 -3 -3 -3 -3 -3 -4 -4 -4 -4 -4 -3 -3 -3 -3
3 3 3 2 2 1 1 1 0 0 0 0 -0 -0 -1 -1 -1 -1 -2 -2 -2 -3 -3 -4 -4 -4 -5 -5 -5 -5 -4 -4 -4 -4 -4 -5 -5 -5 -4 -4 -4 -4 -4
2 2 2 1 1 0 0 -0 -1 -1 -1 -1 -1 -1 -1 -1 -2 -2 -2 -2 -3 -3 -4 -4 -4 -5 -5 -5 -5 -5 -5 -5 -5 -5 -5 -5 -5 -5 -5 -5 -4 -4 -4
1 1 1 0 0 -0 -1 -2 -2 -2 -2 -2 -2 -2 -2 -2 -2 -2 -3 -3 -3 -3 -3 -4 -4 -5 -5 -5 -5 -5 -6 -6 -7 -6 -6 -6 -6 -6 -5 -5 -5 -5 -5
0 -0 -0 -1 -1 -1 -2 -2 -3 -3 -3 -3 -3 -3 -3 -3 -3 -3 -3 -3 -3 -3 -3 -3 -4 -4 -4 -4 -5 -5 -6 -6 -6 -6 -6 -6 -6 -6 -5 -5 -5 -5 -5
-1 -2 -2 -2 -2 -2 -3 -3 -3 -3 -3 -3 -3 -3 -3 -3 -3 -3 -3 -4 -3 -3 -3 -3 -3 -3 -4 -4 -4 -4 -5 -5 -6 -6 -7 -7 -6 -6 -6 -6 -5 -6 -6
-2 -2 -3 -3 -3 -3 -3 -3 -4 -4 -4 -4 -4 -4 -4 -4 -3 -4 -4 -4 -4 -4 -4 -4 -4 -4 -4 -4 -4 -5 -6 -7 -7 -7 -7 -7 -7 -6 -6 -6 -6 -6 -6
-3 -4 -4 -4 -4 -4 -4 -4 -4 -4 -4 -4 -4 -4 -4 -4 -4 -4 -4 -4 -4 -4 -4 -4 -4 -4 -4 -4 -5 -5 -5 -6 -7 -7 -7 -7 -7 -7 -7 -6 -6 -6 -6

GEFSMA_850_meantemp_084.txt.gz
Temperature
9 9 9 9 8 8 8 8 8 8 8 8 8 8 8 8 8 9 9 9 9 9 9 9 8 7 7 7 6 6 6 6 6 6 6 6 6 6 6 6 6 6 6
9 9 8 8 8 8 8 8 7 7 7 7 8 8 8 8 8 8 8 9 9 9 9 9 9 8 7 7 6 6 6 6 6 6 6 6 6 6 6 6 5 5 5
9 8 8 8 8 8 8 7 7 7 7 7 7 7 7 8 8 8 8 8 9 9 9 9 9 8 8 8 7 7 6 6 6 6 6 6 5 5 5 5 5 5 5
8 8 8 8 8 7 7 7 7 7 7 7 7 7 7 7 7 8 8 8 8 9 9 9 9 9 8 8 8 7 7 6 6 6 6 6 5 5 5 5 5 5 5
9 8 8 8 7 7 7 7 7 7 6 6 6 6 6 6 7 7 8 8 8 8 9 9 9 9 9 9 8 8 7 7 7 6 6 5 5 5 5 5 5 5 5
9 8 8 8 7 7 7 7 7 7 6 6 6 6 6 6 6 7 7 8 8 8 9 9 9 9 9 9 9 8 8 7 7 6 6 5 5 5 5 5 4 4 4
9 9 8 8 8 7 7 7 7 6 6 6 5 5 5 5 6 6 7 8 8 8 8 9 9 9 9 9 9 8 8 7 7 6 5 5 5 5 5 4 4 4 4
9 9 8 8 8 7 7 7 7 6 6 6 5 4 4 5 6 5 6 6 7 7 7 8 8 8 8 8 9 8 8 8 7 6 5 5 4 4 4 4 4 4 4
9 9 8 8 8 7 7 7 7 6 6 5 4 4 3 5 5 5 4 4 5 5 6 6 7 7 7 7 7 8 8 7 7 6 5 4 4 4 4 4 4 4 4
9 8 8 8 8 7 7 7 7 6 5 5 4 4 4 3 2 3 4 4 4 4 4 4 5 5 6 6 6 6 7 7 7 6 5 4 4 4 4 4 4 4 4
8 8 8 7 7 7 7 7 6 6 5 5 5 4 3 2 1 0 2 3 3 3 3 3 3 3 4 5 5 6 6 6 6 6 5 4 4 4 4 4 4 4 4
7 7 7 7 7 7 6 6 6 5 5 5 4 4 3 2 2 1 1 2 3 3 3 3 2 2 3 4 4 5 5 5 5 5 5 4 4 3 3 4 4 4 4
7 7 7 6 6 6 6 6 5 5 5 4 4 4 3 2 2 1 1 1 2 2 2 2 2 2 2 3 3 4 4 4 4 4 4 4 3 3 3 3 3 4 4
6 6 6 6 6 5 5 5 5 5 4 4 4 3 3 2 2 1 1 0 0 1 2 2 2 2 2 2 2 2 3 3 3 3 3 2 2 2 2 2 2 3 3
5 5 5 5 5 5 5 4 4 4 3 3 3 3 2 2 2 1 1 -0 -1 -1 1 2 2 2 2 1 1 1 1 2 2 2 2 1 1 1 1 1 1 2 2
5 5 4 4 4 4 4 3 3 3 2 2 2 1 1 1 1 0 -0 -1 -1 -1 -1 0 1 1 1 -0 -0 -0 -0 0 0 1 1 0 0 -0 -0 -0 0 1 1
4 4 4 3 3 3 3 2 2 1 1 1 1 0 -0 -0 -1 -1 -1 -1 -2 -2 -2 -1 -0 -0 -1 -1 -1 -2 -1 -1 -1 -1 -1 -1 -1 -1 -1 -1 -1 -0 0
3 3 3 2 2 2 2 1 1 0 -0 -0 -1 -1 -1 -1 -2 -2 -2 -2 -2 -2 -2 -2 -1 -1 -1 -2 -2 -2 -2 -2 -2 -2 -2 -2 -2 -2 -2 -2 -1 -1 -1
3 2 2 1 1 1 1 0 -0 -1 -1 -1 -2 -2 -2 -2 -2 -2 -3 -3 -3 -3 -3 -3 -2 -2 -2 -2 -3 -3 -3 -3 -3 -3 -3 -3 -2 -2 -2 -2 -2 -2 -1
2 1 1 1 0 0 -0 -1 -1 -2 -2 -2 -3 -3 -3 -3 -3 -3 -3 -3 -3 -3 -3 -3 -3 -3 -3 -3 -3 -4 -4 -4 -4 -3 -3 -3 -3 -3 -3 -3 -2 -2 -2
1 1 0 -0 -1 -1 -1 -2 -2 -3 -3 -3 -4 -4 -4 -4 -4 -3 -3 -3 -3 -3 -3 -3 -3 -3 -3 -3 -3 -4 -4 -4 -4 -4 -4 -4 -4 -4 -3 -3 -3 -3 -2
-0 -1 -1 -1 -2 -2 -2 -3 -4 -4 -4 -4 -4 -4 -4 -4 -4 -4 -3 -3 -3 -3 -3 -3 -3 -3 -3 -3 -3 -4 -4 -4 -4 -4 -4 -4 -4 -4 -4 -4 -4 -3 -3
-1 -2 -2 -2 -3 -3 -3 -4 -4 -5 -5 -5 -5 -4 -4 -4 -4 -4 -4 -4 -4 -4 -3 -3 -3 -3 -3 -3 -3 -4 -4 -4 -4 -4 -4 -5 -5 -5 -4 -4 -4 -4 -4
-2 -3 -3 -3 -4 -3 -4 -4 -5 -5 -5 -5 -5 -5 -5 -4 -4 -4 -4 -4 -4 -4 -4 -4 -4 -4 -4 -4 -4 -4 -4 -4 -4 -4 -5 -5 -5 -5 -5 -5 -5 -5 -5
-3 -3 -4 -4 -4 -4 -4 -5 -5 -5 -5 -5 -5 -5 -5 -4 -4 -4 -4 -4 -4 -4 -4 -4 -4 -4 -4 -4 -4 -4 -4 -4 -5 -5 -5 -5 -5 -5 -5 -5 -5 -5 -5
-4 -4 -5 -5 -5 -5 -5 -5 -6 -6 -5 -5 -5 -5 -5 -4 -4 -4 -4 -4 -4 -4 -4 -4 -4 -4 -4 -4 -4 -4 -4 -4 -4 -5 -5 -5 -6 -6 -6 -6 -6 -5 -5

GEFSMA_850_meantemp_090.txt.gz
Temperature
9 9 9 8 8 8 8 8 8 8 8 7 7 8 8 9 9 9 10 10 10 10 10 10 10 10 10 10 10 10 9 9 9 9 9 9 9 9 9 9 10 10 10
9 9 8 8 8 8 7 7 7 7 7 7 7 7 8 8 8 9 9 9 10 10 10 10 10 10 10 10 10 10 10 9 9 9 9 9 9 9 9 9 9 9 9
9 9 8 8 8 8 7 7 7 7 7 7 7 7 7 7 8 8 8 8 9 9 10 10 10 10 10 10 10 9 9 9 9 9 9 9 9 8 8 8 8 8 8
9 9 8 8 8 8 8 7 7 7 7 7 7 7 7 7 7 7 8 8 8 9 9 9 10 10 9 9 9 9 9 9 8 8 8 8 8 8 8 8 8 8 8
8 8 8 8 8 8 7 7 7 7 7 7 7 7 7 7 7 7 8 8 8 8 9 9 9 9 9 9 9 8 8 8 8 8 8 8 8 7 7 7 7 7 7
9 8 8 8 8 8 7 7 7 7 7 6 6 6 6 7 7 7 8 8 8 8 8 8 8 8 8 8 8 8 8 7 7 7 7 7 7 7 7 7 7 7 6
9 8 8 8 8 8 7 7 7 6 6 6 5 6 6 7 7 8 8 8 7 7 7 7 7 7 7 7 7 7 7 7 7 6 6 6 6 6 6 6 6 6 6
9 8 8 8 8 7 7 7 7 6 6 6 5 4 4 5 6 6 7 7 7 7 6 6 6 6 6 6 6 7 7 7 6 6 6 6 6 6 6 6 6 6 6
8 8 8 8 8 7 7 7 6 6 6 6 5 4 4 4 4 5 6 6 6 6 6 5 5 5 5 5 5 6 6 6 6 6 5 5 5 5 6 6 6 6 6
8 8 8 7 7 7 7 7 6 6 5 5 5 5 4 4 3 3 3 4 5 5 5 5 5 5 5 5 5 5 5 5 5 5 4 4 4 5 5 5 6 6 6
7 7 7 7 7 7 6 6 6 6 5 5 5 4 4 4 3 2 2 3 4 4 4 4 4 4 4 4 4 4 4 4 4 4 4 3 3 4 4 5 5 6 6
7 6 6 6 6 6 6 6 5 5 5 5 4 4 4 3 3 3 2 2 2 3 3 3 3 3 4 4 4 4 4 4 3 3 3 3 3 3 3 4 4 5 5
6 6 6 6 6 6 6 5 5 5 4 4 4 4 3 3 3 2 2 2 1 2 2 2 3 3 3 3 3 3 3 3 3 3 2 2 2 2 2 2 3 3 4
6 6 6 5 5 5 5 4 4 4 4 3 3 3 2 2 2 2 2 1 1 1 1 1 2 2 2 2 2 2 3 3 2 2 2 1 1 1 1 1 1 2 3
5 5 5 5 5 4 4 4 3 3 3 2 2 2 2 2 1 1 1 1 0 -0 0 0 0 1 1 1 1 1 1 2 1 1 1 1 0 0 0 0 0 1 1
5 4 4 4 4 4 3 3 2 2 2 2 1 1 1 1 1 0 0 0 -0 -0 -1 -1 -0 -0 -0 -0 -0 -0 0 0 0 0 0 0 -0 -0 -0 -0 -0 -0 0
4 4 4 3 3 3 3 2 2 1 1 1 1 0 0 -0 -0 -1 -1 -1 -1 -1 -1 -1 -1 -1 -1 -1 -1 -1 -1 -1 -1 -1 -1 -1 -1 -1 -1 -1 -1 -1 -0
4 3 3 3 2 2 2 1 1 0 -0 -0 -1 -1 -1 -1 -2 -2 -2 -2 -2 -2 -2 -2 -2 -2 -2 -2 -2 -2 -2 -2 -2 -2 -2 -1 -1 -1 -1 -1 -1 -1 -1
3 3 2 2 2 1 1 0 -0 -1 -1 -1 -2 -2 -2 -3 -3 -3 -3 -4 -4 -4 -3 -3 -3 -3 -3 -3 -3 -3 -2 -2 -2 -2 -2 -2 -2 -2 -2 -2 -2 -2 -2
2 2 2 1 1 0 -0 -0 -1 -2 -2 -2 -3 -3 -4 -4 -4 -4 -4 -4 -4 -4 -4 -4 -4 -4 -4 -3 -3 -3 -3 -3 -3 -3 -3 -3 -3 -3 -3 -2 -2 -2 -2
2 1 1 0 -0 -1 -1 -1 -2 -3 -3 -3 -3 -4 -4 -4 -5 -5 -4 -4 -4 -4 -4 -4 -4 -4 -4 -3 -3 -3 -3 -3 -3 -3 -3 -3 -3 -3 -3 -3 -3 -3 -2
1 0 -0 -1 -1 -1 -2 -2 -3 -3 -4 -4 -4 -4 -5 -5 -5 -5 -5 -4 -4 -4 -4 -4 -3 -3 -4 -4 -4 -4 -4 -4 -4 -3 -3 -3 -3 -3 -3 -3 -3 -3 -3
-0 -1 -1 -1 -2 -2 -2 -3 -4 -4 -4 -4 -5 -5 -5 -5 -5 -5 -5 -5 -4 -4 -4 -4 -4 -4 -4 -4 -4 -4 -4 -4 -4 -4 -4 -4 -4 -4 -3 -3 -3 -3 -3
-1 -1 -2 -2 -2 -3 -3 -4 -4 -5 -5 -5 -5 -5 -5 -5 -5 -5 -5 -5 -4 -4 -4 -4 -4 -4 -4 -4 -4 -4 -4 -4 -4 -4 -4 -4 -4 -4 -4 -4 -4 -4 -4
-2 -2 -2 -3 -3 -3 -4 -5 -5 -5 -5 -5 -5 -5 -5 -6 -5 -5 -5 -5 -5 -4 -4 -4 -4 -4 -4 -4 -4 -4 -4 -4 -4 -4 -4 -4 -4 -4 -4 -4 -4 -4 -4
-2 -3 -3 -3 -4 -4 -5 -5 -5 -5 -5 -5 -5 -6 -6 -6 -6 -5 -5 -5 -5 -5 -5 -5 -4 -4 -4 -4 -4 -4 -4 -4 -4 -4 -4 -4 -4 -4 -4 -4 -4 -4 -4

GEFSMA_850_meantemp_096.txt.gz
Temperature
9 9 9 8 8 8 8 8 8 8 8 7 7 7 7 7 7 7 8 8 8 8 8 8 8 8 8 8 8 8 8 8 8 8 8 8 8 8 9 9 9 9 10
9 9 9 8 8 8 8 8 8 7 7 7 7 7 7 7 7 7 7 7 8 8 8 8 7 7 7 7 7 7 7 7 7 8 8 8 8 8 8 8 8 8 8
9 9 9 8 8 8 8 8 8 7 7 7 7 7 7 7 7 7 7 7 8 8 8 8 7 7 7 6 6 7 7 7 7 7 7 7 7 8 8 8 8 8 7
9 9 9 8 8 8 8 8 7 7 7 7 7 7 7 7 7 7 8 8 8 8 8 8 7 7 7 6 6 6 6 6 6 6 7 7 7 7 7 7 7 7 7
9 9 8 8 8 8 7 7 7 7 7 7 6 6 7 7 7 7 8 8 8 8 8 8 7 7 7 7 6 6 6 6 6 6 6 6 6 7 7 7 7 7 7
9 9 8 8 8 8 7 7 7 7 6 6 6 6 7 7 7 7 7 7 7 7 7 7 7 7 7 6 6 6 5 5 5 5 5 5 5 6 6 7 7 7 7
9 9 8 8 8 7 7 7 7 6 6 6 6 6 7 7 7 7 7 7 7 6 6 6 6 6 6 6 6 5 5 5 5 4 4 5 5 5 5 6 6 7 7
9 8 8 8 7 7 7 7 6 6 6 6 5 4 4 5 5 5 5 6 6 6 5 5 5 5 5 5 5 5 5 4 4 4 4 4 4 4 5 5 6 6 7
8 8 8 7 7 7 7 6 6 6 6 6 5 4 3 3 3 3 4 4 4 4 4 4 4 4 4 4 4 4 4 4 4 4 4 4 4 4 4 4 5 5 6
8 7 7 7 7 6 6 6 6 5 5 5 5 4 3 3 2 2 2 3 3 3 3 3 3 4 4 4 3 3 3 3 3 3 3 3 4 4 4 4 4 5 5
7 7 7 6 6 6 6 5 5 5 4 4 4 3 3 3 2 1 1 2 2 2 2 2 3 3 3 3 3 3 3 3 2 2 2 3 3 3 4 4 4 4 4
7 7 6 6 6 6 5 5 5 4 4 4 3 3 2 2 2 1 1 0 0 1 1 1 2 2 2 2 2 1 1 1 1 1 2 2 2 2 3 3 3 3 3
7 6 6 6 5 5 5 5 4 4 4 3 3 2 2 2 1 1 0 -0 -1 -0 -0 0 1 1 1 1 0 0 0 0 0 0 1 1 1 1 2 2 2 2 2
6 6 5 5 5 5 4 4 4 4 3 3 2 2 1 1 1 0 -0 -1 -2 -2 -1 -1 -1 -1 -1 -1 -1 -1 -1 -1 -1 -1 -0 -0 -0 0 1 1 1 2 2
5 5 5 5 4 4 4 4 3 3 3 2 2 1 1 1 0 -0 -1 -2 -2 -3 -3 -2 -2 -2 -2 -2 -2 -2 -2 -2 -2 -2 -1 -1 -1 -1 -0 0 0 1 1
5 5 4 4 4 4 3 3 3 2 2 2 1 1 0 -0 -1 -1 -2 -2 -3 -3 -4 -4 -3 -3 -3 -3 -3 -3 -3 -2 -2 -2 -2 -2 -2 -2 -1 -1 -1 -0 -0
4 4 4 3 3 3 3 2 2 1 1 1 0 -0 -1 -1 -2 -2 -2 -3 -3 -4 -5 -4 -4 -4 -4 -4 -3 -3 -3 -3 -2 -2 -2 -2 -2 -2 -2 -2 -1 -1 -1
4 3 3 3 3 2 2 1 1 1 0 -0 -1 -1 -2 -2 -3 -3 -3 -4 -4 -4 -5 -5 -5 -5 -4 -4 -4 -4 -3 -3 -3 -3 -3 -3 -3 -2 -2 -2 -2 -1 -1
3 3 3 2 2 2 1 1 0 -0 -1 -1 -2 -2 -3 -3 -3 -4 -4 -4 -4 -5 -5 -5 -5 -5 -5 -4 -4 -4 -4 -4 -3 -3 -3 -3 -3 -3 -3 -2 -2 -2 -2
2 2 2 2 1 1 0 -0 -1 -1 -2 -2 -3 -3 -4 -4 -4 -4 -5 -5 -5 -5 -5 -5 -5 -5 -5 -5 -4 -4 -4 -4 -4 -4 -3 -3 -3 -3 -3 -3 -3 -3 -2
2 2 1 1 1 0 -0 -1 -2 -2 -3 -3 -3 -4 -4 -4 -5 -5 -5 -5 -5 -5 -5 -5 -5 -5 -5 -5 -5 -5 -5 -4 -4 -4 -4 -4 -3 -3 -3 -3 -3 -3 -3
1 1 1 0 0 -0 -1 -2 -3 -3 -3 -4 -4 -4 -4 -5 -5 -5 -5 -5 -5 -5 -5 -5 -5 -5 -5 -5 -5 -5 -5 -5 -5 -4 -4 -4 -4 -4 -3 -3 -3 -3 -3
1 1 0 -0 -0 -1 -1 -2 -3 -4 -4 -4 -5 -5 -5 -5 -5 -5 -5 -5 -5 -5 -6 -5 -5 -5 -5 -5 -5 -5 -5 -5 -5 -5 -5 -5 -4 -4 -4 -3 -3 -3 -3
0 0 -0 -1 -1 -1 -2 -3 -3 -4 -4 -5 -5 -5 -5 -5 -5 -6 -6 -6 -6 -6 -5 -6 -6 -5 -5 -5 -5 -5 -5 -5 -5 -5 -5 -5 -4 -4 -4 -4 -3 -3 -3
-0 -1 -1 -1 -2 -2 -2 -3 -4 -5 -5 -5 -5 -5 -6 -6 -6 -6 -6 -6 -6 -6 -6 -6 -6 -6 -5 -5 -5 -5 -5 -5 -5 -5 -5 -5 -5 -4 -4 -4 -3 -3 -3
-1 -1 -1 -2 -2 -2 -3 -4 -5 -5 -6 -6 -6 -6 -6 -6 -6 -6 -6 -6 -6 -6 -6 -6 -6 -6 -6 -6 -6 -6 -6 -6 -6 -6 -5 -5 -5 -5 -5 -4 -4 -3 -3

GEFSMA_850_meantemp_102.txt.gz
Temperature
9 9 9 8 8 8 8 8 8 8 7 7 7 7 7 7 7 7 7 7 7 7 8 7 7 7 7 7 7 7 7 8 8 8 8 8 8 8 8 8 8 8 8
9 9 9 9 8 8 8 8 8 8 7 7 7 7 7 7 7 7 7 8 8 8 8 8 8 7 7 7 7 7 7 7 7 7 7 7 8 8 8 8 8 8 8
9 9 9 9 9 8 8 8 8 7 7 7 7 7 7 7 7 7 8 8 8 8 7 7 7 7 7 7 6 6 7 7 7 7 7 7 7 7 7 8 8 8 8
9 9 9 9 8 8 8 8 8 7 7 7 7 7 7 7 8 8 8 8 7 7 7 7 7 7 7 7 6 6 6 6 6 6 6 6 6 6 7 7 7 8 8
9 9 9 8 8 8 8 8 7 7 7 7 7 7 7 8 8 8 8 7 7 7 7 7 7 7 7 7 6 6 6 6 6 6 6 5 6 6 6 6 6 7 7
9 9 9 8 8 8 8 7 7 7 7 7 7 7 8 8 8 8 8 7 7 7 7 7 6 6 6 6 6 6 6 6 5 5 5 5 5 5 5 5 6 6 6
9 9 8 8 8 8 7 7 7 7 7 6 7 7 8 7 8 7 7 7 7 6 6 6 6 6 6 6 6 6 6 6 5 5 5 5 4 4 5 5 5 5 5
9 8 8 8 8 7 7 7 7 6 6 6 5 5 5 6 5 6 6 6 6 6 5 5 5 5 5 5 5 5 5 5 5 5 4 4 4 4 4 4 5 5 5
8 8 8 8 7 7 7 6 6 6 6 5 5 4 3 3 3 4 4 5 5 4 4 5 5 5 5 5 5 5 5 4 4 4 4 3 3 3 3 4 4 4 5
8 8 7 7 7 7 6 6 6 5 5 5 4 4 3 2 2 2 3 3 3 4 4 4 4 4 4 4 4 4 4 4 3 3 3 3 2 2 3 3 3 4 4
8 7 7 7 6 6 6 5 5 5 5 4 4 4 3 3 2 1 1 2 3 3 3 3 3 3 3 3 3 3 3 2 2 2 1 1 1 2 2 2 3 3 3
8 7 7 6 6 6 5 5 5 4 4 4 4 3 3 2 1 0 -0 0 1 2 2 2 2 2 2 2 2 1 1 1 1 1 1 0 0 1 1 1 1 2 2
7 7 6 6 6 5 5 5 4 4 4 4 3 3 2 2 1 0 -1 -1 -1 -0 0 1 1 1 1 1 1 1 0 0 -0 -0 -0 -1 -1 -0 -0 -0 0 1 1
7 6 6 6 5 5 5 4 4 4 3 3 3 2 2 1 1 -0 -1 -2 -2 -2 -2 -1 -1 -0 -0 -0 -0 -0 -0 -1 -1 -1 -1 -2 -2 -2 -1 -1 -1 -0 0
6 6 5 5 5 4 4 4 4 3 3 3 2 2 1 1 0 -0 -1 -2 -3 -4 -4 -3 -3 -2 -2 -1 -1 -1 -1 -2 -2 -2 -3 -3 -2 -2 -2 -2 -1 -1 -1
6 5 5 5 4 4 4 3 3 3 2 2 2 1 1 0 -0 -1 -2 -2 -3 -4 -5 -5 -4 -4 -3 -3 -2 -3 -3 -3 -3 -3 -3 -3 -3 -3 -2 -2 -2 -2 -1
5 5 5 4 4 4 3 3 3 2 2 2 1 1 0 -0 -1 -1 -2 -3 -3 -4 -5 -4 -4 -4 -4 -4 -4 -3 -3 -3 -3 -3 -3 -3 -3 -3 -3 -3 -2 -2 -2
5 5 4 4 3 3 3 2 2 2 1 1 1 0 -0 -1 -2 -2 -3 -3 -4 -4 -5 -5 -5 -5 -5 -5 -5 -4 -4 -4 -4 -4 -4 -4 -4 -4 -3 -3 -3 -2 -2
5 4 4 3 3 3 2 2 1 1 1 1 0 -0 -1 -2 -2 -3 -3 -4 -4 -4 -5 -5 -5 -5 -5 -5 -5 -5 -5 -5 -4 -4 -4 -4 -4 -4 -4 -3 -3 -3 -3
4 4 3 3 2 2 2 1 1 1 0 0 -0 -1 -1 -2 -3 -3 -4 -4 -5 -5 -5 -6 -6 -6 -6 -5 -5 -5 -5 -5 -5 -5 -5 -5 -4 -4 -4 -4 -4 -3 -3
4 3 3 2 2 2 1 1 0 -0 -0 -1 -1 -1 -2 -3 -3 -4 -5 -5 -5 -5 -6 -6 -6 -6 -6 -6 -6 -6 -6 -6 -6 -5 -5 -4 -4 -4 -4 -4 -4 -4 -4
3 3 2 2 2 1 1 0 -0 -1 -1 -1 -2 -2 -2 -3 -4 -4 -5 -5 -6 -6 -6 -6 -6 -6 -6 -6 -6 -6 -6 -6 -6 -6 -5 -5 -5 -5 -4 -4 -4 -4 -4
3 2 2 1 1 1 0 -0 -1 -1 -2 -2 -2 -3 -3 -4 -4 -5 -5 -5 -5 -6 -6 -6 -6 -6 -6 -6 -6 -6 -6 -6 -6 -6 -6 -6 -5 -5 -4 -4 -4 -4 -4
2 2 1 1 1 0 -0 -1 -1 -2 -2 -2 -3 -3 -4 -4 -5 -5 -6 -6 -6 -6 -6 -6 -6 -6 -6 -6 -6 -6 -6 -6 -6 -6 -6 -6 -5 -5 -5 -5 -5 -4 -4
1 1 1 0 0 -0 -1 -1 -2 -2 -2 -3 -3 -4 -5 -5 -5 -6 -6 -6 -6 -6 -6 -6 -6 -6 -6 -6 -6 -6 -6 -7 -7 -6 -6 -6 -6 -6 -6 -5 -5 -5 -5
1 0 0 -0 -1 -1 -1 -2 -2 -3 -4 -4 -4 -4 -5 -6 -6 -6 -6 -6 -6 -6 -6 -6 -6 -6 -6 -6 -7 -7 -7 -7 -7 -7 -7 -7 -7 -7 -6 -6 -5 -5 -5

GEFSMA_850_meantemp_108.txt.gz
Temperature
9 9 9 9 9 9 8 8 8 8 8 8 8 8 8 8 7 7 7 8 8 8 8 8 8 8 8 7 7 7 7 8 8 8 8 8 8 8 8 9 9 9 9
9 9 9 9 9 9 8 8 8 8 8 8 8 8 7 7 7 7 7 8 8 8 8 8 8 8 7 7 7 7 7 7 7 8 8 8 8 8 8 8 8 8 8
9 9 9 9 9 9 9 8 8 8 8 8 8 7 8 8 8 7 7 8 8 8 8 8 8 8 8 7 7 7 7 7 7 7 7 7 7 7 7 7 7 8 8
9 9 9 9 9 9 9 8 8 8 8 7 7 7 8 8 8 8 8 8 8 8 7 7 7 7 7 7 7 7 6 6 6 6 6 6 6 7 7 7 7 7 7
9 9 9 9 9 9 8 8 8 8 7 7 8 8 8 8 8 8 8 7 7 7 7 7 7 7 7 7 7 7 6 6 6 6 6 6 6 6 6 6 6 6 6
9 9 9 9 9 8 8 8 8 8 7 7 8 8 8 8 8 8 7 7 7 7 7 6 6 6 6 6 6 6 6 6 5 5 5 5 5 5 5 5 5 6 6
9 9 9 9 9 8 8 8 8 7 7 7 7 7 7 7 7 7 7 6 6 6 6 6 6 6 6 6 6 6 6 6 5 5 4 4 4 4 4 5 5 5 5
9 9 9 9 8 8 8 8 7 7 7 7 6 5 6 6 6 6 6 6 5 5 5 5 5 5 5 5 5 5 5 5 5 4 4 4 4 3 3 4 4 4 4
9 9 9 9 8 8 8 7 7 7 6 6 5 5 4 5 5 5 5 5 4 4 4 4 5 5 5 5 5 5 5 5 4 4 3 3 3 3 3 3 3 3 4
9 9 9 8 8 8 7 7 7 6 6 5 5 5 4 3 3 3 4 3 3 3 3 4 4 4 4 4 4 4 4 4 4 3 3 2 2 2 2 2 2 3 3
9 9 9 8 8 8 7 7 6 6 6 5 5 4 3 3 2 1 2 3 3 2 2 2 3 3 3 3 3 3 3 3 3 2 2 2 2 1 1 1 2 2 2
9 9 8 8 8 7 7 6 6 6 5 5 4 4 3 2 2 1 1 1 1 2 1 2 2 2 2 2 2 2 2 2 2 1 1 1 1 1 1 1 1 1 1
9 9 8 8 7 7 6 6 5 5 5 4 4 3 3 2 2 1 0 0 0 0 0 0 1 1 1 1 1 1 1 1 0 -0 -0 -0 -0 -0 -0 -0 -0 -0 -0
9 8 8 7 7 6 6 5 5 5 4 4 4 3 3 2 2 1 0 -1 -1 -1 -0 0 -0 -0 -0 -0 0 0 0 -0 -1 -1 -1 -1 -2 -1 -2 -1 -1 -1 -1
8 8 7 7 6 6 5 5 5 4 4 3 3 3 2 2 1 1 0 -1 -2 -2 -1 -1 -1 -1 -2 -2 -1 -1 -1 -1 -1 -2 -2 -2 -2 -2 -2 -2 -2 -2 -2
8 7 7 6 6 5 5 4 4 4 3 3 3 2 2 1 1 0 -0 -1 -2 -3 -3 -2 -2 -2 -2 -2 -2 -2 -2 -2 -2 -2 -2 -3 -3 -3 -3 -3 -3 -3 -2
7 7 6 6 5 5 4 4 4 3 3 2 2 2 1 1 0 0 -1 -1 -2 -3 -3 -3 -3 -3 -3 -3 -3 -4 -4 -4 -3 -3 -3 -3 -3 -4 -4 -4 -3 -3 -3
7 6 6 5 5 5 4 4 3 3 2 2 1 1 1 0 0 -0 -1 -2 -2 -3 -4 -4 -4 -4 -4 -4 -4 -5 -4 -4 -4 -4 -4 -4 -4 -4 -4 -4 -4 -4 -3
7 6 5 5 5 4 4 3 3 2 2 1 1 1 0 -0 -0 -1 -2 -2 -3 -3 -4 -4 -5 -5 -5 -5 -5 -5 -5 -5 -5 -5 -5 -5 -4 -4 -4 -4 -4 -4 -4
6 6 5 5 4 4 3 3 2 2 1 1 1 0 0 -0 -1 -1 -2 -3 -3 -4 -4 -5 -5 -5 -5 -5 -5 -5 -5 -5 -5 -5 -5 -5 -5 -5 -5 -4 -4 -4 -4
6 5 5 4 4 3 3 2 2 1 1 1 0 -0 -0 -1 -1 -2 -3 -3 -4 -5 -5 -5 -5 -5 -5 -5 -5 -5 -5 -5 -5 -6 -5 -5 -5 -5 -5 -5 -5 -5 -5
5 5 4 4 3 3 2 2 1 1 0 -0 -1 -1 -1 -1 -2 -2 -3 -4 -4 -5 -5 -5 -5 -5 -5 -6 -6 -6 -6 -6 -6 -6 -6 -6 -6 -6 -5 -5 -5 -5 -5
4 4 4 3 3 2 2 1 1 0 -0 -1 -1 -1 -2 -2 -3 -3 -3 -4 -5 -5 -5 -6 -6 -6 -6 -6 -6 -6 -6 -6 -6 -6 -6 -6 -6 -6 -6 -5 -5 -5 -5
4 4 3 3 2 2 1 1 0 -0 -1 -1 -2 -2 -2 -3 -3 -4 -4 -5 -5 -5 -6 -6 -6 -6 -6 -6 -6 -6 -6 -6 -6 -6 -6 -6 -6 -6 -6 -6 -6 -6 -5
3 3 2 2 2 1 1 0 -0 -1 -1 -2 -2 -2 -3 -3 -4 -5 -5 -6 -6 -6 -6 -6 -6 -6 -6 -6 -6 -6 -6 -7 -7 -7 -7 -7 -7 -7 -6 -6 -6 -6 -6
3 2 2 2 1 1 0 -0 -1 -2 -2 -2 -3 -3 -4 -4 -4 -5 -6 -6 -6 -6 -6 -6 -6 -6 -6 -6 -6 -6 -7 -7 -7 -7 -7 -7 -7 -8 -7 -7 -6 -6 -6

GEFSMA_850_meantemp_114.txt.gz
Temperature
10 10 10 9 9 9 9 9 9 9 9 9 8 8 8 8 8 8 8 8 8 8 8 8 8 7 7 7 7 7 7 7 7 7 7 8 8 8 8 8 8 8 8
10 10 10 9 9 9 9 9 9 9 9 9 8 8 8 8 8 8 8 8 8 8 8 8 8 7 7 7 7 6 6 6 6 6 7 7 7 7 7 7 7 8 8
10 10 10 10 9 9 9 9 9 9 9 8 8 8 8 8 8 8 8 8 8 8 8 8 7 7 7 7 6 6 6 6 6 6 6 6 6 6 6 6 7 7 7
10 10 10 10 9 9 9 9 9 9 8 8 8 9 9 9 8 8 8 8 7 7 7 7 7 7 7 7 6 6 6 6 5 5 5 5 5 6 6 6 6 6 6
10 10 10 10 9 9 9 9 9 9 8 9 9 9 9 9 8 8 8 7 7 7 7 7 6 7 7 6 6 6 5 5 5 5 5 5 5 5 5 5 5 5 6
10 10 10 10 9 9 9 9 8 8 8 8 9 9 9 9 8 8 7 7 7 6 6 6 6 6 6 6 5 5 5 4 4 4 4 4 4 4 4 4 4 5 5
10 10 10 10 9 9 9 9 8 8 8 8 8 9 9 8 7 7 7 7 6 6 6 5 5 5 5 5 5 5 4 4 4 3 3 3 3 3 3 3 4 4 4
10 10 10 10 9 9 9 9 9 8 8 8 7 7 7 7 7 7 7 6 6 6 5 5 5 5 5 5 5 5 4 4 3 3 3 3 3 3 3 3 3 3 3
10 10 10 10 9 9 9 9 9 8 8 7 7 6 6 5 6 6 6 5 5 5 5 5 5 4 4 4 4 4 4 3 3 2 2 2 2 2 2 2 2 2 3
10 10 10 10 9 9 9 9 8 8 8 7 7 6 5 5 4 4 6 5 5 5 4 4 4 4 4 4 4 3 3 3 2 2 2 1 1 1 1 2 2 2 2
10 10 10 10 9 9 9 9 8 8 7 7 6 6 5 5 4 3 3 5 5 5 4 4 4 4 3 3 3 3 2 2 2 2 1 1 1 1 1 1 1 1 1
10 10 10 9 9 9 9 8 8 7 7 6 6 5 5 4 4 3 2 3 4 5 4 4 4 3 2 2 1 1 1 1 1 1 0 0 0 0 0 -0 -0 0 0
10 10 10 9 9 9 8 8 8 7 7 6 6 5 5 4 4 3 2 2 2 3 4 4 3 2 2 1 1 0 0 0 -0 -0 -1 -1 -1 -1 -1 -1 -1 -1 -1
10 10 10 9 9 9 8 8 7 7 6 6 5 5 4 4 3 3 2 1 1 1 2 3 3 2 1 0 0 -0 -0 -1 -1 -1 -2 -2 -2 -2 -2 -2 -2 -2 -2
10 10 9 9 9 8 8 7 7 7 6 6 5 5 4 4 3 3 2 1 0 -1 -0 1 1 1 0 -0 -0 -1 -1 -1 -1 -2 -2 -2 -3 -3 -3 -3 -3 -3 -3
10 9 9 9 8 8 8 7 7 6 6 5 5 4 4 3 3 2 2 1 0 -1 -2 0 0 0 -0 -1 -1 -1 -1 -2 -2 -2 -2 -3 -3 -3 -3 -3 -4 -3 -3
10 9 9 9 8 8 7 7 6 6 5 5 4 4 3 3 2 2 1 1 0 -1 -2 -1 -1 -1 -1 -2 -2 -2 -2 -2 -3 -3 -3 -3 -3 -4 -4 -4 -4 -4 -4
9 9 9 8 8 7 7 6 6 5 5 4 4 3 3 2 2 1 1 0 0 -1 -2 -2 -2 -2 -2 -3 -3 -3 -4 -4 -4 -4 -4 -4 -4 -4 -4 -4 -4 -4 -4
9 9 8 8 7 7 6 6 5 5 4 4 3 3 3 2 2 1 1 0 -0 -1 -2 -3 -2 -3 -3 -3 -4 -4 -5 -5 -5 -5 -5 -5 -5 -5 -4 -4 -4 -5 -5
9 8 8 7 7 6 6 5 5 4 4 3 3 3 2 1 1 1 0 -0 -1 -2 -2 -3 -3 -3 -4 -4 -5 -5 -5 -5 -5 -5 -5 -5 -5 -5 -5 -5 -5 -5 -5
8 8 7 7 6 6 5 5 4 4 3 3 3 2 2 1 1 0 -1 -1 -2 -2 -3 -3 -4 -4 -4 -5 -5 -5 -6 -5 -5 -5 -5 -5 -5 -5 -5 -5 -5 -5 -5
8 7 7 6 6 6 5 4 4 3 3 2 2 2 1 1 0 -0 -1 -2 -2 -3 -3 -4 -4 -5 -5 -5 -5 -6 -6 -6 -6 -5 -6 -6 -6 -5 -5 -5 -5 -6 -6
7 7 6 6 5 5 4 4 3 2 2 2 1 1 0 -0 -1 -1 -2 -2 -3 -3 -4 -4 -5 -5 -5 -6 -6 -6 -6 -6 -6 -6 -6 -6 -6 -6 -5 -6 -6 -6 -6
7 6 6 5 5 4 4 3 2 2 1 1 1 0 -1 -1 -1 -2 -2 -3 -3 -3 -4 -5 -5 -5 -6 -6 -6 -6 -6 -6 -6 -6 -6 -6 -6 -6 -6 -6 -6 -6 -6
6 6 5 5 4 4 3 3 2 1 1 0 0 -1 -1 -2 -2 -3 -3 -4 -4 -4 -5 -5 -6 -6 -6 -6 -6 -6 -6 -6 -6 -6 -6 -7 -7 -7 -7 -6 -6 -6 -6
5 5 4 4 3 3 2 2 1 0 0 -0 -1 -1 -2 -2 -3 -4 -4 -5 -5 -5 -5 -6 -6 -6 -6 -6 -6 -6 -6 -7 -7 -7 -7 -7 -7 -8 -8 -7 -7 -7 -7

GEFSMA_850_meantemp_120.txt.gz
Temperature
10 10 10 10 10 9 9 9 9 9 9 9 9 9 9 9 8 8 8 8 8 8 7 7 7 6 6 6 6 6 6 6 6 6 6 6 6 6 6 7 7 7 7
10 10 10 10 10 9 9 9 9 9 9 9 9 9 9 9 9 8 8 8 8 8 7 7 7 6 6 6 5 5 5 5 5 5 5 5 5 5 5 5 6 6 6
10 10 10 10 10 9 9 9 9 9 9 9 9 9 9 9 9 8 8 8 8 7 7 7 7 6 6 5 5 5 5 5 5 5 5 4 5 5 5 5 5 5 5
10 10 10 10 10 9 9 9 9 9 9 9 9 9 9 9 9 8 8 8 7 7 7 7 6 6 6 5 5 5 5 5 4 4 4 4 4 4 4 4 4 5 5
10 10 10 10 10 10 9 9 10 9 9 9 9 9 9 9 9 8 8 7 7 7 6 6 6 6 6 5 5 5 5 4 4 4 4 4 4 4 4 4 4 4 4
10 10 10 10 10 10 10 10 10 10 9 9 9 9 9 9 8 8 7 7 7 6 6 6 6 6 5 5 5 5 4 4 4 3 3 3 3 3 3 3 3 3 4
10 10 10 10 10 10 10 10 10 9 9 9 9 9 9 8 8 7 7 7 6 6 6 5 5 5 5 5 5 5 4 4 3 3 3 2 2 2 2 3 3 3 3
10 10 10 10 10 10 10 10 10 9 9 9 9 9 8 8 7 7 7 6 6 6 5 5 5 5 5 5 4 4 4 3 2 2 2 2 2 2 2 2 2 2 2
10 10 10 10 10 10 10 10 10 9 9 9 9 8 8 8 7 7 7 6 6 6 5 5 5 5 5 4 4 4 4 3 2 2 1 1 1 1 1 1 1 2 2
10 10 10 10 10 10 10 10 9 9 9 9 8 8 8 7 7 6 6 6 6 5 5 5 5 5 4 4 4 3 3 2 1 1 1 1 1 1 1 1 1 1 1
10 10 10 10 10 10 10 9 9 9 9 9 8 8 7 7 6 5 6 6 6 6 5 5 5 4 4 3 3 3 2 2 1 1 0 0 0 -0 -0 -0 -0 -0 -0
10 10 10 10 10 10 9 9 9 9 9 8 8 7 7 6 6 5 5 5 5 6 5 5 4 4 3 2 2 2 1 1 1 0 -0 -0 -1 -1 -1 -1 -1 -1 -1
10 10 10 10 10 9 9 9 9 9 8 8 8 7 7 6 5 5 4 4 4 5 5 5 4 3 2 2 1 1 1 1 0 -0 -0 -1 -1 -1 -1 -2 -2 -2 -2
11 10 10 10 9 9 9 9 9 8 8 8 7 7 6 6 5 4 4 3 3 3 3 4 3 2 2 1 1 1 0 0 -0 -1 -1 -1 -2 -2 -2 -2 -2 -2 -2
10 10 10 9 9 9 9 9 8 8 8 7 7 7 6 6 5 4 3 3 2 1 2 3 2 2 1 1 0 -0 -0 -1 -1 -1 -2 -2 -2 -2 -3 -3 -3 -3 -3
10 10 10 9 9 9 9 8 8 8 7 7 7 6 6 5 5 4 3 3 2 1 0 1 1 1 1 0 -0 -1 -1 -1 -1 -2 -2 -3 -3 -3 -4 -4 -4 -4 -4
10 10 9 9 9 9 8 8 8 7 7 7 6 6 5 5 4 4 3 2 2 1 0 1 1 0 -0 -0 -1 -1 -1 -2 -2 -2 -3 -3 -4 -4 -4 -4 -4 -4 -4
9 9 9 9 9 8 8 8 7 7 7 6 6 5 5 4 4 3 3 2 1 1 -0 -0 0 -0 -1 -1 -1 -2 -2 -2 -3 -3 -3 -4 -4 -4 -4 -5 -5 -5 -4
9 9 9 9 8 8 8 7 7 6 6 6 5 5 4 4 3 3 2 2 1 0 -0 -1 -1 -1 -1 -2 -2 -2 -3 -3 -3 -4 -4 -4 -4 -5 -5 -5 -5 -5 -5
9 9 8 8 8 8 7 7 6 6 6 5 5 4 4 3 3 2 1 1 0 -0 -1 -2 -2 -2 -2 -3 -3 -3 -4 -4 -4 -4 -4 -5 -5 -5 -5 -5 -5 -5 -5
8 8 8 8 7 7 7 7 6 6 5 5 4 4 3 3 2 1 1 0 -1 -1 -2 -2 -3 -3 -3 -3 -4 -4 -5 -5 -5 -5 -5 -5 -5 -5 -5 -5 -5 -5 -6
8 8 8 7 7 7 6 6 5 5 4 4 4 3 3 2 1 1 0 -1 -1 -2 -2 -3 -3 -4 -4 -4 -5 -5 -6 -6 -6 -6 -6 -6 -6 -6 -6 -6 -6 -6 -6
7 7 7 7 7 6 6 5 5 4 4 3 3 3 2 1 1 0 -0 -1 -1 -2 -3 -3 -4 -4 -4 -5 -5 -6 -6 -6 -6 -6 -6 -6 -6 -6 -6 -6 -6 -6 -7
7 7 7 6 6 6 5 5 4 3 3 3 2 2 1 1 0 -1 -1 -1 -2 -2 -3 -4 -4 -4 -5 -5 -6 -6 -6 -6 -6 -6 -7 -7 -6 -6 -6 -6 -7 -7 -7
7 6 6 6 5 5 4 4 3 3 2 2 2 1 0 -0 -1 -1 -2 -2 -3 -3 -3 -4 -5 -5 -5 -6 -6 -6 -7 -7 -7 -7 -7 -7 -7 -7 -7 -7 -7 -7 -7
6 6 5 5 5 4 4 3 2 2 2 1 1 0 -0 -1 -2 -2 -3 -3 -3 -4 -4 -5 -5 -5 -6 -6 -6 -7 -7 -7 -8 -8 -8 -8 -8 -8 -8 -7 -7 -7 -7

GEFSMA_850_meantemp_126.txt.gz
Temperature
11 10 10 10 10 9 9 9 9 9 9 9 9 9 9 9 9 9 8 8 8 8 7 7 6 6 6 6 6 6 6 6 5 5 5 5 5 5 5 5 6 6 6
11 10 10 10 10 9 9 9 9 9 9 9 9 9 9 9 9 9 8 8 8 8 7 7 6 6 6 6 6 6 5 5 5 5 5 5 5 5 5 5 5 5 5
11 10 10 10 10 9 9 9 9 9 9 9 9 9 9 9 9 9 8 8 8 7 7 7 7 6 6 6 5 5 5 5 5 5 5 4 4 4 4 4 4 4 5
10 10 10 10 10 9 9 9 9 9 9 9 9 9 9 9 9 8 8 8 8 7 7 7 7 7 6 6 6 5 5 5 5 4 4 4 4 4 4 4 4 4 4
10 10 10 10 9 9 9 9 9 9 9 9 9 9 9 9 9 8 8 8 7 7 7 7 7 7 6 6 6 6 5 5 4 4 4 3 3 3 3 3 3 3 3
10 10 10 10 9 9 9 9 9 9 9 9 9 9 9 9 8 8 8 7 7 7 7 7 6 6 6 6 6 6 5 5 4 3 3 3 3 3 3 3 3 3 3
11 10 10 10 9 9 9 9 9 9 9 9 9 9 9 9 8 8 8 7 7 7 6 6 6 6 6 6 6 6 5 4 3 3 3 2 2 2 2 2 2 2 2
11 10 10 10 10 9 9 9 9 9 9 9 9 9 9 8 8 8 7 7 7 6 6 6 6 6 6 6 5 5 5 4 3 3 2 2 2 2 2 2 2 2 2
11 10 10 10 9 9 9 9 9 9 9 9 9 9 8 8 8 8 7 7 7 6 6 6 6 5 5 5 5 5 4 4 3 2 2 2 2 1 1 1 1 1 1
11 10 10 10 10 9 9 9 9 9 9 9 9 8 8 8 8 7 7 7 7 6 6 6 5 5 5 5 4 4 4 4 3 2 2 1 1 1 1 1 1 1 1
11 10 10 10 9 9 9 9 9 9 9 9 9 8 8 8 7 7 7 7 7 6 6 6 5 5 4 4 4 3 3 3 3 2 2 1 1 1 0 0 0 0 -0
11 10 10 10 9 9 9 9 9 9 9 9 8 8 8 8 7 7 6 6 6 6 6 6 5 5 4 3 3 3 3 2 2 2 2 1 1 1 0 -0 -0 -1 -1
11 10 10 10 9 9 9 9 9 9 9 8 8 8 8 7 7 6 6 6 5 5 6 5 5 4 3 3 2 2 2 2 1 1 1 1 1 0 -0 -0 -1 -1 -1
12 11 10 10 9 9 9 9 9 9 8 8 8 8 7 7 7 6 6 5 4 4 4 5 4 3 3 2 2 1 1 1 1 0 0 -0 -0 -1 -1 -1 -1 -2 -2
12 11 10 10 9 9 9 9 9 8 8 8 8 7 7 7 6 6 5 5 4 3 3 4 3 3 2 1 1 1 1 0 0 -0 -1 -1 -1 -2 -2 -2 -2 -3 -3
11 11 10 10 9 9 9 9 8 8 8 8 7 7 7 6 6 5 5 4 4 3 2 3 2 2 1 1 0 -0 -0 -1 -1 -1 -1 -1 -2 -2 -3 -3 -3 -3 -4
11 10 10 10 9 9 9 8 8 8 8 7 7 7 6 6 5 5 4 4 3 3 2 2 2 1 1 1 0 -0 -1 -1 -1 -2 -2 -2 -3 -3 -3 -4 -4 -4 -4
10 10 10 9 9 9 8 8 8 8 7 7 7 6 6 6 5 5 4 3 3 2 1 1 1 1 1 0 -0 -1 -1 -2 -2 -2 -2 -3 -3 -4 -4 -4 -5 -5 -5
10 10 9 9 9 8 8 8 8 7 7 7 6 6 6 5 5 4 3 3 2 2 1 0 0 0 -0 -1 -1 -2 -2 -2 -3 -3 -3 -3 -4 -4 -4 -5 -5 -5 -5
9 9 9 9 8 8 8 8 7 7 7 6 6 6 5 5 4 3 3 2 2 1 0 -0 -0 -1 -1 -2 -2 -3 -3 -3 -3 -4 -4 -4 -4 -5 -5 -5 -5 -5 -5
9 9 9 8 8 8 8 7 7 7 6 6 6 5 5 4 3 3 2 2 1 0 -0 -1 -1 -2 -2 -2 -3 -3 -4 -4 -4 -4 -4 -4 -5 -5 -5 -5 -5 -5 -6
9 8 8 8 8 8 7 7 7 6 6 6 5 5 4 4 3 2 2 1 0 -0 -1 -1 -2 -2 -3 -3 -4 -4 -5 -5 -5 -5 -6 -5 -5 -5 -5 -6 -6 -6 -6
8 8 8 8 7 7 7 7 6 6 5 5 5 4 4 3 2 2 1 0 -0 -1 -1 -2 -3 -3 -3 -4 -4 -5 -5 -6 -6 -6 -6 -6 -6 -6 -6 -6 -6 -6 -7
8 8 7 7 7 7 6 6 6 5 5 4 4 3 3 2 2 1 0 -0 -1 -1 -2 -3 -3 -3 -4 -4 -5 -6 -6 -6 -6 -6 -7 -7 -6 -6 -6 -6 -6 -7 -7
7 7 7 7 7 6 6 5 5 5 4 4 3 3 2 2 1 0 -1 -1 -1 -2 -2 -3 -4 -4 -4 -5 -6 -6 -6 -7 -7 -7 -7 -8 -7 -7 -7 -7 -7 -7 -8
7 7 7 6 6 6 5 5 4 4 4 3 3 2 1 1 0 -1 -1 -2 -2 -2 -3 -3 -4 -4 -5 -5 -6 -7 -7 -7 -8 -8 -8 -8 -8 -9 -9 -8 -7 -8 -8

GEFSMA_850_meantemp_132.txt.gz
Temperature
10 10 10 10 10 9 9 9 9 9 9 9 9 9 9 9 9 8 8 9 8 8 7 7 7 7 7 7 6 6 6 6 6 6 6 6 5 5 5 5 5 5 5
10 10 10 10 10 9 9 9 9 9 9 9 9 9 9 9 9 8 8 8 8 8 8 7 7 7 7 6 6 6 6 6 6 6 6 5 5 5 5 5 5 5 5
10 10 10 10 10 9 9 9 9 9 9 9 9 9 9 9 9 8 8 8 8 8 8 8 7 7 7 7 6 6 6 6 5 5 5 5 5 4 4 4 4 4 4
11 10 10 10 10 10 9 9 9 9 9 9 9 9 9 9 9 9 8 8 8 8 7 8 7 7 7 7 6 6 6 5 5 5 5 4 4 4 4 4 4 4 4
11 10 10 10 10 10 9 9 9 9 9 9 9 9 9 9 9 9 8 8 8 8 7 7 7 7 7 7 7 6 6 5 5 5 4 4 4 4 4 4 4 4 4
11 10 10 10 10 10 9 9 9 9 9 9 9 9 9 9 9 9 8 8 8 8 7 7 7 7 7 7 7 6 6 5 5 4 4 4 4 3 3 3 3 3 3
11 10 10 10 10 9 9 9 9 9 9 9 9 9 9 9 9 9 8 8 8 8 7 7 7 7 7 7 7 6 6 5 5 4 4 3 3 3 3 3 3 3 3
11 10 10 10 10 10 9 9 9 9 9 9 9 8 8 8 9 9 8 8 8 7 7 7 7 7 6 6 6 6 6 5 5 4 3 3 3 3 2 2 2 2 2
11 11 10 10 10 10 9 9 9 9 9 9 9 9 8 9 8 8 9 8 8 7 7 7 7 6 6 6 6 6 5 5 5 4 3 3 2 2 2 2 2 2 2
11 11 11 10 10 10 9 9 9 9 9 9 9 9 9 8 8 8 8 8 8 7 7 7 6 6 6 5 5 5 5 5 4 4 3 3 2 2 2 1 1 1 1
12 11 11 10 10 10 9 9 9 9 9 9 9 9 9 8 8 7 7 7 7 7 7 7 6 6 6 5 5 4 4 4 4 3 3 3 2 2 1 1 1 1 1
12 11 11 10 10 10 10 9 9 9 9 9 9 9 8 8 8 8 7 7 6 7 7 7 6 6 5 5 4 4 4 4 3 3 3 3 2 2 1 1 0 0 0
12 12 11 11 10 10 10 9 9 9 9 9 9 9 8 8 8 8 7 6 6 6 6 6 6 6 5 4 4 4 3 3 3 2 2 2 2 1 1 0 0 -0 -1
13 13 12 11 10 10 10 9 9 9 9 9 8 8 8 8 8 7 7 6 6 5 6 5 5 5 4 4 3 3 3 3 2 2 2 1 1 1 0 -0 -1 -1 -1
12 12 12 11 10 10 10 9 9 9 8 8 8 8 8 8 7 7 7 6 5 5 5 5 4 4 4 3 3 3 2 2 2 1 1 1 0 -0 -1 -1 -1 -2 -2
12 12 11 11 10 10 10 9 9 9 8 8 8 8 8 7 7 7 6 6 5 5 4 4 4 3 3 3 2 2 1 1 1 1 0 -0 -1 -1 -1 -2 -2 -2 -3
11 11 11 11 10 10 10 9 9 9 8 8 8 8 7 7 7 7 6 6 5 5 4 4 3 3 2 2 1 1 1 0 -0 -0 -1 -1 -1 -2 -2 -2 -3 -3 -3
11 11 11 10 10 10 10 9 9 9 8 8 8 7 7 7 6 6 6 5 5 4 3 3 3 2 2 1 1 0 -0 -0 -1 -1 -1 -2 -2 -2 -2 -3 -3 -3 -4
10 10 10 10 10 10 9 9 9 8 8 8 8 7 7 7 6 6 5 5 4 4 3 2 2 2 1 0 -0 -0 -1 -1 -1 -2 -2 -2 -2 -3 -3 -3 -4 -4 -4
10 10 10 9 9 9 9 9 9 8 8 8 7 7 6 6 6 5 5 4 4 3 2 2 1 1 0 -0 -1 -1 -2 -2 -2 -2 -2 -3 -3 -3 -3 -4 -4 -4 -5
10 10 9 9 9 9 9 9 8 8 8 7 7 6 6 6 5 5 4 4 3 2 2 1 0 -0 -1 -1 -2 -2 -3 -3 -3 -3 -3 -4 -4 -4 -4 -5 -5 -5 -5
9 9 9 9 9 9 8 8 8 7 7 7 6 6 6 5 5 4 4 3 3 2 1 0 -0 -1 -1 -2 -2 -3 -3 -4 -4 -4 -5 -5 -5 -5 -5 -6 -6 -6 -6
9 9 9 8 8 8 8 8 7 7 7 6 6 6 5 5 4 4 3 3 2 1 0 -0 -1 -1 -2 -2 -3 -4 -4 -4 -5 -5 -6 -5 -6 -6 -6 -6 -6 -6 -7
9 8 8 8 8 8 8 7 7 7 6 6 6 5 5 4 3 3 2 2 1 1 0 -1 -1 -2 -2 -3 -3 -4 -4 -5 -5 -6 -6 -6 -6 -7 -6 -6 -7 -7 -7
8 8 8 8 8 7 7 7 7 6 6 5 5 5 4 3 3 2 1 1 1 0 -1 -1 -2 -2 -3 -3 -4 -5 -5 -6 -6 -6 -7 -7 -7 -7 -7 -7 -7 -7 -8
8 8 7 7 7 7 7 6 6 6 5 5 4 4 3 3 2 1 1 0 -0 -1 -1 -2 -2 -3 -3 -4 -4 -5 -6 -7 -7 -7 -7 -8 -8 -8 -8 -8 -8 -8 -8

GEFSMA_850_meantemp_138.txt.gz
Temperature
10 10 10 10 10 10 10 10 10 10 10 10 10 10 9 9 9 10 10 9 9 9 9 8 8 8 8 8 7 7 7 7 7 7 7 6 6 6 6 6 6 6 5
10 10 10 10 10 10 10 10 10 10 10 10 10 10 9 9 9 9 10 9 9 9 9 8 8 8 8 8 8 8 7 7 7 6 6 6 6 6 5 5 5 5 5
11 10 10 10 10 10 10 10 10 10 10 10 10 10 10 9 9 9 9 9 9 9 9 9 8 8 8 8 8 8 7 7 7 6 6 6 6 6 5 5 5 5 5
11 10 10 10 10 10 10 10 10 10 10 10 10 10 10 9 9 9 9 9 9 9 9 9 9 8 8 8 8 7 7 7 6 6 6 6 5 5 5 4 4 4 4
11 11 10 10 10 10 10 10 10 10 10 10 10 10 10 10 10 9 9 9 9 9 9 9 9 9 8 8 8 7 7 7 6 6 6 5 5 5 5 4 4 4 4
11 11 11 10 10 10 10 10 10 10 10 10 10 9 10 10 9 9 9 9 9 9 9 9 9 9 8 8 8 7 7 7 6 6 5 5 5 4 4 4 3 3 3
11 11 11 11 10 10 10 10 10 10 10 10 9 9 9 9 9 9 9 9 9 9 9 9 8 8 8 8 8 7 7 7 6 5 5 5 4 4 4 3 3 3 3
11 11 11 11 11 11 10 10 10 10 10 10 10 9 9 9 9 9 9 9 9 9 9 9 8 8 8 8 7 7 7 6 6 5 5 4 4 3 3 3 3 2 2
12 11 11 11 11 11 11 10 10 10 10 10 9 9 9 9 9 9 9 9 9 9 9 8 8 8 8 7 7 7 6 6 6 5 5 4 4 3 3 2 2 2 2
12 12 11 11 11 11 11 10 10 10 10 10 9 9 9 9 9 9 9 9 9 9 8 8 8 8 7 7 7 6 6 6 5 5 4 4 3 3 2 2 2 2 1
12 12 11 11 11 11 11 10 10 10 10 10 10 9 9 9 9 9 9 9 8 8 8 8 8 8 7 7 6 6 5 5 5 4 4 4 3 3 2 2 2 1 1
12 12 11 11 11 11 11 10 10 10 10 10 9 9 9 9 9 9 8 8 8 8 8 8 8 7 7 7 6 6 5 5 4 4 3 3 3 2 2 2 1 1 1
12 13 12 12 11 11 11 10 10 10 10 9 9 9 9 9 9 8 8 8 8 8 8 8 7 7 7 6 6 5 5 4 4 3 3 2 2 2 1 1 1 1 0
14 14 13 12 12 11 10 10 10 10 10 9 9 9 9 9 8 8 8 8 7 7 7 7 7 7 6 6 5 5 4 4 3 2 2 2 1 1 1 0 0 0 -0
13 13 13 12 11 11 10 10 10 10 9 9 9 9 9 8 8 8 8 7 7 6 6 6 6 6 5 5 4 4 3 3 2 2 1 1 1 0 0 -0 -0 -1 -1
12 13 12 12 11 11 10 10 10 9 9 9 9 9 8 8 8 8 7 7 7 6 6 6 6 5 5 4 4 3 3 2 2 1 1 0 0 -0 -1 -1 -1 -2 -2
12 12 12 12 11 10 10 10 9 9 9 9 9 8 8 8 8 7 7 7 6 6 6 5 5 5 4 3 3 2 2 1 1 1 0 -0 -1 -1 -1 -2 -2 -2 -3
12 12 11 11 11 10 10 9 9 9 9 8 8 8 8 8 7 7 7 7 6 6 5 5 5 4 4 3 2 2 1 1 0 -0 -1 -1 -1 -2 -2 -2 -3 -3 -3
11 11 11 10 10 10 10 9 9 9 8 8 8 8 8 7 7 7 7 6 6 5 5 4 4 3 3 2 2 1 1 0 -0 -1 -1 -2 -2 -2 -3 -3 -3 -4 -4
11 11 10 10 10 10 9 9 9 8 8 8 8 8 8 7 7 7 6 6 5 5 4 4 3 3 2 1 1 0 0 -0 -1 -1 -2 -2 -3 -3 -3 -4 -4 -4 -5
11 10 10 10 10 9 9 9 8 8 8 8 8 7 7 7 7 6 6 5 5 4 4 3 3 2 1 1 0 -0 -1 -1 -1 -2 -2 -3 -3 -3 -4 -4 -5 -5 -5
11 10 10 10 9 9 9 9 8 8 8 8 7 7 7 7 6 6 5 5 4 4 3 2 2 1 1 -0 -1 -1 -2 -2 -2 -3 -3 -3 -4 -4 -4 -5 -5 -6 -6
10 10 10 9 9 9 9 8 8 8 8 7 7 7 7 6 6 5 5 4 4 3 2 2 1 1 0 -1 -1 -2 -2 -3 -3 -3 -4 -4 -4 -4 -5 -5 -5 -6 -6
10 10 9 9 9 9 8 8 8 8 7 7 7 6 6 6 5 5 4 4 3 2 2 1 1 0 -1 -1 -2 -2 -3 -3 -3 -3 -4 -5 -5 -5 -5 -5 -6 -6 -7
10 9 9 9 9 8 8 8 7 7 7 7 6 6 6 5 5 4 4 3 3 2 1 1 0 -0 -1 -2 -2 -3 -3 -4 -4 -4 -5 -6 -6 -6 -6 -6 -6 -7 -7
9 9 9 9 8 8 8 7 7 7 6 6 6 5 5 5 4 3 3 2 2 1 1 0 -0 -1 -1 -2 -3 -3 -4 -5 -5 -6 -6 -7 -7 -7 -8 -7 -7 -7 -7

GEFSMA_850_meantemp_144.txt.gz
Temperature
11 11 11 11 11 11 11 11 10 10 10 10 10 10 10 10 10 10 10 10 9 9 9 9 8 8 8 8 8 8 8 8 7 7 7 7 7 7 6 6 6 6 6
12 11 11 11 11 11 11 10 10 10 10 10 10 10 10 10 10 10 10 10 10 9 9 9 9 8 8 8 8 8 8 8 7 7 7 7 6 6 6 6 6 5 5
11 11 11 11 11 11 10 10 10 10 10 10 10 10 10 10 10 10 10 10 10 9 9 9 9 8 8 8 8 8 8 7 7 7 7 6 6 6 6 5 5 5 5
11 11 11 11 11 10 10 10 10 10 10 10 10 10 10 10 10 10 10 10 9 9 9 9 9 9 8 8 8 8 8 7 7 7 6 6 6 6 5 5 5 4 4
11 11 11 11 11 10 10 10 10 10 10 10 10 10 10 10 10 10 10 10 9 9 9 9 9 9 9 8 8 8 8 7 7 6 6 6 5 5 5 5 4 4 4
11 11 11 11 11 10 10 10 10 10 10 10 10 9 9 9 9 10 9 9 9 9 9 9 9 9 8 8 8 8 7 7 7 6 6 5 5 5 5 4 4 4 3
11 11 11 11 11 10 10 10 10 10 9 9 9 9 9 9 9 9 9 9 9 9 9 9 9 9 8 8 8 7 7 7 6 6 5 5 5 5 4 4 4 3 3
12 11 11 11 11 10 10 10 10 10 10 9 9 9 9 9 9 9 9 9 9 9 9 9 8 8 8 8 8 7 7 7 6 6 5 5 4 4 4 3 3 3 3
12 12 12 11 11 11 11 10 10 10 10 10 9 9 10 10 10 10 10 9 9 9 9 9 8 8 8 8 7 7 7 6 6 5 5 4 4 4 3 3 3 2 2
12 12 12 11 11 11 11 11 10 10 10 10 9 9 10 10 10 9 9 9 9 9 9 8 8 8 8 7 7 7 6 6 5 5 5 4 4 3 3 2 2 2 2
12 12 12 11 11 11 11 11 10 10 10 10 10 10 9 9 9 9 9 10 9 9 9 8 8 8 7 7 7 6 6 6 5 5 4 4 3 3 2 2 2 2 1
12 12 12 11 11 11 11 11 11 10 10 10 10 10 10 9 9 9 9 9 9 9 9 8 8 8 7 7 7 6 6 5 5 4 4 3 3 3 2 2 1 1 1
12 12 12 12 12 12 11 11 10 10 10 10 10 10 9 9 9 9 9 8 8 8 8 8 8 7 7 7 6 6 5 5 4 4 3 3 2 2 2 1 1 1 0
14 14 13 12 12 12 11 11 10 10 10 10 10 9 9 9 9 8 8 8 8 8 8 8 8 7 7 6 6 5 5 4 4 3 3 2 2 1 1 1 0 -0 -0
14 13 13 12 12 12 11 11 10 10 10 10 9 9 9 9 8 8 8 7 7 7 7 7 7 7 6 6 5 5 4 4 3 3 2 1 1 1 0 -0 -1 -1 -1
13 13 13 12 12 12 11 11 10 10 10 9 9 9 9 8 8 8 7 7 7 6 6 6 6 6 5 5 4 4 4 3 3 2 2 1 0 0 -0 -1 -1 -2 -2
13 13 13 12 12 11 11 10 10 10 9 9 9 9 8 8 8 8 7 7 7 6 6 6 6 5 5 4 4 3 3 3 2 2 1 0 -0 -0 -1 -1 -2 -2 -2
13 13 12 12 12 11 11 11 10 10 9 9 9 8 8 8 8 7 7 7 6 6 5 5 5 5 4 4 3 3 2 2 1 1 1 -0 -1 -1 -1 -2 -2 -3 -3
12 12 12 12 11 11 11 10 10 10 9 9 8 8 8 8 7 7 7 7 6 6 5 5 4 4 4 3 3 2 2 1 1 0 -0 -1 -1 -1 -2 -2 -3 -3 -3
12 12 12 12 11 11 10 10 10 9 9 8 8 8 8 7 7 7 7 6 6 5 5 4 4 3 3 3 2 2 2 1 0 -0 -0 -1 -1 -2 -2 -3 -3 -3 -4
12 12 12 11 11 10 10 10 9 9 9 8 8 8 7 7 7 7 6 6 5 5 4 4 3 3 2 2 1 1 0 0 -0 -1 -1 -1 -2 -2 -3 -3 -3 -4 -4
12 11 11 11 11 10 10 10 9 9 8 8 8 8 7 7 7 6 6 5 5 4 4 3 3 2 2 1 1 -0 -1 -1 -1 -2 -2 -2 -2 -3 -3 -4 -4 -5 -5
11 11 11 11 10 10 10 9 9 9 8 8 8 8 7 7 6 6 5 5 4 4 3 3 2 2 1 0 -0 -1 -1 -1 -2 -2 -3 -2 -3 -3 -4 -4 -5 -5 -6
11 11 11 11 10 10 10 9 9 8 8 8 8 7 7 7 6 6 5 5 4 4 3 2 2 1 1 -0 -1 -1 -2 -2 -2 -3 -3 -4 -4 -4 -4 -4 -5 -5 -6
11 11 10 10 10 10 9 9 8 8 8 8 7 7 7 6 6 5 5 4 4 3 2 2 1 1 0 -1 -1 -2 -2 -3 -3 -3 -4 -5 -5 -5 -4 -4 -5 -6 -6
11 11 10 10 10 9 9 9 8 8 8 7 7 7 6 5 5 4 4 4 3 3 2 1 1 0 -0 -1 -1 -2 -3 -3 -4 -5 -5 -6 -6 -7 -6 -5 -5 -6 -6

GEFSMA_850_meantemp_150.txt.gz
Temperature
11 11 11 11 11 11 11 11 11 11 10 10 10 10 10 10 10 10 10 9 9 9 8 8 8 8 8 8 8 8 8 8 8 8 7 7 7 7 7 6 6 6 6
11 11 11 11 11 10 10 11 10 10 10 10 10 10 10 10 9 9 9 9 9 9 9 8 8 8 8 8 8 8 8 8 7 7 7 7 7 7 6 6 6 6 5
11 11 11 11 10 10 10 10 10 10 10 10 10 10 9 9 9 9 9 9 9 9 9 9 8 8 8 8 8 8 8 8 7 7 7 7 7 6 6 6 5 5 5
11 11 11 10 10 10 10 10 10 10 10 10 10 9 9 9 9 9 9 9 9 9 9 9 9 8 8 8 8 8 8 7 7 7 7 6 6 6 5 5 5 5 5
11 11 11 10 10 10 10 10 10 10 10 9 9 9 9 9 9 9 9 9 9 9 9 9 9 9 8 8 8 8 8 7 7 7 6 6 6 6 5 5 5 5 4
11 11 10 10 10 10 10 10 9 9 9 9 9 9 9 9 9 9 9 9 9 9 9 9 9 9 8 8 8 8 8 7 7 6 6 6 6 5 5 5 5 4 4
11 11 10 10 10 10 10 10 9 9 9 9 9 9 9 9 9 9 9 9 9 9 9 9 9 8 8 8 8 8 7 7 7 6 6 6 5 5 5 4 4 4 4
11 11 10 10 10 10 10 9 9 9 9 9 9 9 9 9 10 10 10 9 9 9 9 9 9 8 8 8 8 8 7 7 7 6 6 5 5 5 4 4 4 4 3
11 11 11 10 10 10 10 10 10 9 9 9 9 9 9 10 10 10 10 10 10 9 9 9 9 8 8 8 8 8 7 7 6 6 5 5 5 4 4 4 3 3 3
11 11 11 11 10 10 10 10 10 9 9 9 9 9 9 9 9 10 10 10 10 9 9 9 9 8 8 8 8 7 7 7 6 6 5 5 4 4 3 3 3 3 2
12 11 11 11 11 10 10 10 10 10 9 9 9 9 9 9 9 9 9 10 10 9 9 9 9 8 8 8 7 7 7 6 6 5 5 4 4 3 3 3 2 2 2
12 12 11 11 11 11 10 10 10 10 10 9 9 9 9 9 9 9 9 9 9 9 9 9 9 8 8 8 7 7 6 6 6 5 5 4 4 3 3 2 2 2 1
12 13 12 12 11 11 11 10 10 10 10 9 9 9 9 9 9 9 8 8 8 8 8 8 8 8 8 7 7 6 6 6 5 5 4 4 3 3 2 2 1 1 1
14 14 13 12 12 11 11 10 10 10 10 10 9 9 9 9 9 8 8 8 7 8 8 8 8 7 7 7 6 6 5 5 5 4 4 3 3 2 1 1 1 0 0
13 13 13 13 12 11 11 11 10 10 10 10 9 9 9 9 8 8 8 8 7 7 7 7 7 7 6 6 6 5 5 5 4 4 3 3 2 2 1 1 0 -0 -1
13 13 13 13 12 12 11 11 10 10 10 10 9 9 9 9 8 8 8 8 7 7 6 7 6 6 6 5 5 5 4 4 4 3 3 2 2 1 1 0 -0 -1 -1
13 13 13 13 12 12 11 11 11 10 10 10 9 9 9 9 8 8 8 7 7 7 6 6 6 6 5 5 5 4 4 4 3 3 2 2 1 1 0 -0 -1 -1 -2
13 13 13 12 12 12 11 11 11 10 10 10 9 9 9 8 8 8 8 7 7 7 6 6 6 5 5 5 4 4 4 3 3 2 2 1 1 0 -0 -1 -1 -2 -2
12 12 12 12 12 12 12 11 11 10 10 10 10 9 9 8 8 8 8 7 7 6 6 5 5 5 5 4 4 4 3 3 3 2 1 1 1 -0 -1 -1 -2 -2 -2
12 12 12 12 12 12 11 11 11 10 10 10 9 9 9 8 8 8 7 7 7 6 6 5 5 5 4 4 3 3 3 3 2 2 1 0 -0 -1 -1 -2 -2 -2 -3
12 12 12 12 12 11 11 11 11 10 10 10 9 9 8 8 8 7 7 7 6 6 5 5 5 4 4 3 3 2 2 2 2 1 1 0 -0 -1 -1 -2 -2 -3 -3
12 12 12 12 11 11 11 11 10 10 10 9 9 9 8 8 8 7 7 6 6 5 5 5 4 4 3 3 2 2 1 1 0 0 0 0 -1 -1 -2 -2 -3 -3 -4
12 11 12 11 11 11 11 11 10 10 10 9 9 9 8 8 7 7 7 6 6 5 5 4 4 3 3 2 2 1 1 0 -0 -1 -1 -0 -1 -1 -2 -3 -3 -4 -4
11 11 11 11 11 11 11 10 10 9 9 9 9 8 8 8 7 7 6 6 5 5 4 4 3 3 2 2 1 1 0 -0 -1 -1 -1 -2 -2 -2 -2 -3 -3 -4 -5
11 11 11 11 11 11 11 10 10 9 9 8 8 8 7 7 7 7 6 6 5 5 4 3 3 2 2 1 1 0 -0 -1 -1 -1 -2 -3 -3 -3 -2 -3 -3 -4 -5
11 11 11 11 11 11 10 10 9 9 8 8 8 7 7 7 7 6 6 5 5 4 4 3 2 2 1 1 0 -0 -1 -1 -2 -3 -3 -4 -4 -5 -4 -3 -4 -4 -5